NOAA 16 DEB, 41418

Orbit data source: Space-Track

NOAA 16 DEB, 41418 is space debris in SSO originally from a launch on Thu, 21 Sep 2000 UTC launched from the Air Force Western Test Range (AFWTR). Debris objects in space refer to the collection of defunct objects orbiting the Earth. Examples of debris include non-operational satellites, rocket bodies, and fragments generated from explosions, collisions, or faulty payload assembly.

Loading next visibility...
Identifier
41418, 2000-055KX
Orbit
SSO
Country
Flag of USUS
Related business
Manufacturer
Unknown
Mission
Spacecraft
Bus & Motor
Unknown
Mass
Unknown
Launch date (UTC)
2000-09-21 (26 years ago)
Launch vehicle
Unknown
Launch site
Air Force Western Test Range (AFWTR)
Object type
Payload
Rocket body
Debris
Shape & HBR
Unknown shape, 0.1 m
Radar Cross Section
Small (<0.1 m²)

Expand to show TLE details & history
Last TLE update: 1 day ago

TLE from 1 day ago
0 NOAA 16 DEB
1 41418U 00055KX  26126.37224316  .00005396  00000-0  13663-2 0  9997
2 41418  99.0114   1.6953 0025217 235.6883 124.1923 14.51153188531211
Epoch: 2026-05-06T08:56Z
TLE epoch observation values (Epoch: 2026-05-06T08:56:01.809Z)
Latitude
0.00004°
Longitude
3.45408°
Altitude
734.926 km
Speed
7.482 km/s
True Right ascension
00h 06m 46s
True Declination
0° 00' 00"
Sunlit
Object was in daylight at epoch
Visualization orbit readout
Latitude
Unknown
Longitude
Unknown
Altitude
Unknown
Speed
Unknown
Apparent Right ascension
Unknown
Apparent Declination
Unknown
Sunlit
N/A
Visualization observer readout
Local Sidereal Time
00:29:20
Azimuth
Unknown
Elevation
Unknown
Doppler factor
Unknown
Orbital elements
Apogee altitude
736.913 km
Perigee altitude
701.12 km
Semi-major axis
7,097.154 km
Eccentricity
0.00252
Inclination
99.0114°
RAAN
1.6953°
Arg. of periapsis
235.6883°
True anomaly
124.4309°
Mean anomaly
124.1923°
Eccentric anomaly
124.31164°
Mean motion
3.63009 °/min
Orbital period
99.17 mins
BSTAR
0.0013663
Loading maneuver chart data...
Computing Atmospheric mass density...

Documentation

Showing up to 5 results
|